Flag for Panama Weather for the Past 2 Weeks in Santiago de Veraguas, Panama

Now
81 °F

Warm.


Feels Like: 85 °F
Forecast: 78 / 93 °F
Wind: 12 mph from North

Location: Marcos A. Gelabert

Current Time: Feb 10, 2016 at 12:46:32 AM

Latest Report: Feb 9, 2016 at 10:00 PM


Visibility: N/A

Pressure: 29.95 "Hg

Humidity: 74%

Dew point: 72 °F

Location of Santiago de VeraguasLocation

Historic Weather in Santiago de Veraguas — Graph

°F

Santiago de Veraguas Temperature Yesterday

Maximum temperature yesterday: 90 °F (at 2:00 PM)
Minimum temperature yesterday: 79 °F (at 6:00 AM)
Average temperature yesterday: 84 °F

High & Low Weather Summary for the Past Weeks

 TemperatureHumidityPressure
High91 °F (Jan 26, 1:00 PM)94% (Jan 28, 7:00 AM)29.98 "Hg (Jan 28, 7:00 AM)
Low75 °F (Jan 26, 6:00 AM)34% (Feb 7, 12:00 PM)29.77 "Hg (Jan 27, 4:00 PM)
Average84 °F66%29.88 "Hg
* Reported Jan 25 10:00 PM — Feb 9 10:00 PM, Santiago de Veraguas, Weather by CustomWeather, © 2016

Note: Actual official high and low records may vary slightly from our data, if they occured in-between our weather recording intervals... More about our weather records

Advertising

Santiago de Veraguas Weather History for the Previous 24 Hours

 ConditionsComfort  
Time TempWeatherWind HumidityBarometerVisibility
10:00 PM
Tue, Feb 9
81 °FWarm.12 mph74%29.95 "HgN/A
9:00 PM81 °FWarm.9 mph74%29.92 "HgN/A
8:00 PM82 °FWarm.12 mph70%29.92 "HgN/A
7:00 PM82 °FWarm.16 mph70%29.89 "HgN/A
6:00 PM86 °FWarm.16 mph59%29.86 "HgN/A
5:00 PM88 °FWarm.18 mph55%29.86 "HgN/A
4:00 PM90 °FHot.16 mph52%29.86 "HgN/A
3:00 PM90 °FHot.16 mph52%29.86 "HgN/A
2:00 PM90 °FHot.12 mph55%29.89 "HgN/A
1:00 PM88 °FWarm.9 mph59%29.95 "HgN/A
12:00 PM88 °FWarm.9 mph59%29.95 "HgN/A
11:00 AM84 °FWarm.9 mph74%29.98 "HgN/A
10:00 AM81 °FWarm.9 mph84%29.98 "HgN/A
9:00 AM84 °FWarm.7 mph70%29.98 "HgN/A
8:00 AM81 °FWarm.No wind79%29.95 "HgN/A
7:00 AM79 °FWarm.No wind79%29.92 "HgN/A
6:00 AM79 °FWarm.No wind84%29.89 "HgN/A
Weather by CustomWeather, © 2016

See weather overviewHow to use our weather pages